User: anonymous   Login
Location: Caltech
(34.1382°N, 118.1253°W)
Time: 22:09:46
(UTC-08:00)
Language:

Oscar 11 - Orbit

View from above orbital plane
View from above orbital plane
View from above satellite
View from above satellite

Ground track
Ground track

The orbit data is extracted from the following two-line orbital elements,

1 14781U 84021B   18021.58463944 +.00000054 +00000-0 +12923-4 0  9991
2 14781 097.6694 063.8949 0008094 194.3591 165.7394 14.82974994801715
Epoch (UTC): 21 January 2018 14:01:52
Eccentricity: 0.0008094
inclination: 97.6694°
perigee height: 614 km
apogee height: 625 km
right ascension of ascending node: 63.8949°
argument of perigee: 194.3591°
revolutions per day: 14.82974994
mean anomaly at epoch: 165.7394°
orbit number at epoch: 80171

The dashed part of the orbit path shows where the satellite is in the earth's shadow,  

DLR